When you browse on this site, cookies collect data to enhance your experience and personalize the content and advertising you see.
Visit our Privacy Policy to learn more. By continuing to use the site, you agree to this use of cookies and data.
  • în România
  • Lista ţărilor
  • Pe 7 zile
  • Temperatura apei
  • Hartă satelitară
  • Meteo pe hartă
  • Widget-uri
  • user-avatar
    Intrare

    Meteo pe oră la Banjul

    Astăzi, 18 Decembrie, Marţi

    Timp Temperatura Precipitaţii Vânt Presiune Umiditate
    00:00 +27°C° 0 mm 5 m/s 760 mmHg 26%
    01:00 +27°C° 0 mm 5 m/s 760 mmHg 23%
    02:00 +26°C° 0 mm 5 m/s 760 mmHg 21%
    03:00 +26°C° 0 mm 5 m/s 760 mmHg 19%
    04:00 +25°C° 0 mm 4 m/s 760 mmHg 17%
    05:00 +25°C° 0 mm 4 m/s 760 mmHg 15%
    06:00 +26°C° 0 mm 4 m/s 760 mmHg 14%
    07:00 +26°C° 0 mm 5 m/s 760 mmHg 14%
    08:00 +27°C° 0 mm 5 m/s 761 mmHg 13%
    09:00 +30°C° 0 mm 5 m/s 760 mmHg 12%
    10:00 +33°C° 0 mm 5 m/s 760 mmHg 11%
    11:00 +36°C° 0 mm 5 m/s 760 mmHg 9%
    12:00 +37°C° 0 mm 4 m/s 760 mmHg 9%
    13:00 +38°C° 0 mm 4 m/s 759 mmHg 9%
    14:00 +40°C° 0 mm 4 m/s 759 mmHg 9%
    15:00 +38°C° 0 mm 4 m/s 758 mmHg 12%
    16:00 +37°C° 0 mm 4 m/s 758 mmHg 14%
    17:00 +36°C° 0 mm 4 m/s 758 mmHg 17%
    18:00 +34°C° 0 mm 5 m/s 759 mmHg 22%
    19:00 +32°C° 0 mm 5 m/s 759 mmHg 28%
    20:00 +29°C° 0 mm 6 m/s 759 mmHg 33%
    21:00 +28°C° 0 mm 6 m/s 760 mmHg 31%
    22:00 +28°C° 0 mm 6 m/s 760 mmHg 29%
    23:00 +27°C° 0 mm 6 m/s 760 mmHg 27%

    Mâine, 19 Decembrie, Miercuri

    Timp Temperatura Precipitaţii Vânt Presiune Umiditate
    00:00 +27°C° 0 mm 6 m/s 760 mmHg 26%
    01:00 +26°C° 0 mm 6 m/s 759 mmHg 24%
    02:00 +26°C° 0 mm 6 m/s 759 mmHg 22%
    03:00 +25°C° 0 mm 5 m/s 759 mmHg 20%
    04:00 +25°C° 0 mm 5 m/s 759 mmHg 19%
    05:00 +25°C° 0 mm 5 m/s 759 mmHg 17%
    06:00 +25°C° 0 mm 5 m/s 760 mmHg 17%
    07:00 +26°C° 0 mm 6 m/s 760 mmHg 16%
    08:00 +27°C° 0 mm 6 m/s 760 mmHg 15%
    09:00 +30°C° 0 mm 5 m/s 760 mmHg 14%
    10:00 +33°C° 0 mm 5 m/s 760 mmHg 13%
    11:00 +36°C° 0 mm 5 m/s 760 mmHg 11%
    12:00 +37°C° 0 mm 4 m/s 760 mmHg 11%
    13:00 +38°C° 0 mm 4 m/s 759 mmHg 11%
    14:00 +39°C° 0 mm 3 m/s 758 mmHg 11%
    15:00 +38°C° 0 mm 4 m/s 758 mmHg 13%
    16:00 +36°C° 0 mm 4 m/s 758 mmHg 16%
    17:00 +35°C° 0 mm 5 m/s 758 mmHg 18%
    18:00 +33°C° 0 mm 5 m/s 758 mmHg 24%
    19:00 +32°C° 0 mm 5 m/s 759 mmHg 29%
    20:00 +29°C° 0 mm 5 m/s 759 mmHg 34%
    21:00 +28°C° 0 mm 5 m/s 759 mmHg 32%
    22:00 +28°C° 0 mm 5 m/s 759 mmHg 29%
    23:00 +27°C° 0 mm 5 m/s 760 mmHg 27%

    Poimâine, 20 Decembrie, Joi

    Timp Temperatura Precipitaţii Vânt Presiune Umiditate
    00:00 +27°C° 0 mm 5 m/s 759 mmHg 25%
    01:00 +26°C° 0 mm 5 m/s 759 mmHg 23%
    02:00 +26°C° 0 mm 5 m/s 759 mmHg 21%
    03:00 +25°C° 0 mm 5 m/s 759 mmHg 20%
    04:00 +25°C° 0 mm 5 m/s 759 mmHg 18%
    05:00 +25°C° 0 mm 5 m/s 759 mmHg 17%
    06:00 +25°C° 0 mm 5 m/s 759 mmHg 16%
    07:00 +26°C° 0 mm 5 m/s 760 mmHg 15%
    08:00 +27°C° 0 mm 5 m/s 760 mmHg 14%
    09:00 +30°C° 0 mm 5 m/s 760 mmHg 13%
    10:00 +34°C° 0 mm 5 m/s 760 mmHg 12%
    11:00 +36°C° 0 mm 5 m/s 760 mmHg 10%
    12:00 +37°C° 0 mm 4 m/s 759 mmHg 10%
    13:00 +38°C° 0 mm 4 m/s 758 mmHg 10%
    14:00 +39°C° 0 mm 3 m/s 757 mmHg 10%
    15:00 +38°C° 0 mm 3 m/s 757 mmHg 12%
    16:00 +37°C° 0 mm 4 m/s 757 mmHg 13%
    17:00 +37°C° 0 mm 4 m/s 757 mmHg 15%
    18:00 +35°C° 0 mm 4 m/s 757 mmHg 20%
    19:00 +33°C° 0 mm 4 m/s 758 mmHg 26%
    20:00 +30°C° 0 mm 4 m/s 759 mmHg 31%
    21:00 +29°C° 0 mm 4 m/s 759 mmHg 29%
    22:00 +29°C° 0 mm 4 m/s 759 mmHg 28%
    23:00 +28°C° 0 mm 4 m/s 759 mmHg 27%

    21 Decembrie, Vineri

    Timp Temperatura Precipitaţii Vânt Presiune Umiditate
    00:00 +28°C° 0 mm 4 m/s 758 mmHg 24%
    01:00 +27°C° 0 mm 4 m/s 758 mmHg 21%
    02:00 +26°C° 0 mm 4 m/s 758 mmHg 18%
    03:00 +26°C° 0 mm 4 m/s 758 mmHg 17%
    04:00 +26°C° 0 mm 5 m/s 758 mmHg 16%
    05:00 +25°C° 0 mm 5 m/s 758 mmHg 16%
    06:00 +26°C° 0 mm 5 m/s 758 mmHg 15%
    07:00 +27°C° 0 mm 5 m/s 759 mmHg 15%
    08:00 +28°C° 0 mm 6 m/s 760 mmHg 15%
    09:00 +30°C° 0 mm 6 m/s 759 mmHg 13%
    10:00 +34°C° 0 mm 6 m/s 759 mmHg 12%
    11:00 +38°C° 0 mm 6 m/s 759 mmHg 11%
    12:00 +39°C° 0 mm 5 m/s 758 mmHg 10%
    13:00 +40°C° 0 mm 5 m/s 757 mmHg 10%
    14:00 +42°C° 0 mm 4 m/s 756 mmHg 10%
    15:00 +41°C° 0 mm 4 m/s 756 mmHg 10%
    16:00 +39°C° 0 mm 3 m/s 756 mmHg 11%
    17:00 +38°C° 0 mm 3 m/s 756 mmHg 12%
    18:00 +36°C° 0 mm 3 m/s 757 mmHg 13%
    19:00 +34°C° 0 mm 3 m/s 757 mmHg 15%
    20:00 +31°C° 0 mm 3 m/s 758 mmHg 17%
    21:00 +30°C° 0 mm 3 m/s 758 mmHg 20%
    22:00 +29°C° 0 mm 3 m/s 758 mmHg 22%
    23:00 +28°C° 0 mm 3 m/s 758 mmHg 24%

    22 Decembrie, Sâmbătă

    Timp Temperatura Precipitaţii Vânt Presiune Umiditate
    00:00 +28°C° 0 mm 3 m/s 758 mmHg 27%
    01:00 +27°C° 0 mm 2 m/s 758 mmHg 30%
    02:00 +26°C° 0 mm 2 m/s 757 mmHg 33%
    03:00 +26°C° 0 mm 2 m/s 757 mmHg 33%
    04:00 +25°C° 0 mm 3 m/s 758 mmHg 32%
    05:00 +25°C° 0 mm 3 m/s 758 mmHg 32%
    06:00 +26°C° 0 mm 3 m/s 758 mmHg 29%
    07:00 +27°C° 0 mm 4 m/s 758 mmHg 26%
    08:00 +27°C° 0 mm 4 m/s 759 mmHg 23%
    09:00 +30°C° 0 mm 4 m/s 759 mmHg 19%
    10:00 +34°C° 0 mm 5 m/s 758 mmHg 15%
    11:00 +37°C° 0 mm 5 m/s 758 mmHg 11%
    12:00 +39°C° 0 mm 5 m/s 757 mmHg 11%
    13:00 +40°C° 0 mm 4 m/s 757 mmHg 11%
    14:00 +41°C° 0 mm 4 m/s 756 mmHg 10%
    15:00 +39°C° 0 mm 3 m/s 756 mmHg 13%
    16:00 +39°C° 0 mm 3 m/s 756 mmHg 15%
    17:00 +38°C° 0 mm 2 m/s 756 mmHg 18%
    18:00 +35°C° 0 mm 3 m/s 756 mmHg 29%
    19:00 +31°C° 0 mm 3 m/s 757 mmHg 40%
    20:00 +29°C° 0 mm 4 m/s 758 mmHg 52%
    21:00 +28°C° 0 mm 3 m/s 758 mmHg 58%
    22:00 +27°C° 0 mm 3 m/s 758 mmHg 64%
    23:00 +27°C° 0 mm 3 m/s 758 mmHg 70%

    23 Decembrie, Duminică

    Timp Temperatura Precipitaţii Vânt Presiune Umiditate
    00:00 +26°C° 0 mm 2 m/s 758 mmHg 68%
    01:00 +26°C° 0 mm 2 m/s 757 mmHg 67%
    02:00 +26°C° 0 mm 2 m/s 757 mmHg 65%
    03:00 +25°C° 0 mm 1 m/s 757 mmHg 63%
    04:00 +25°C° 0 mm 1 m/s 757 mmHg 62%
    05:00 +25°C° 0 mm 1 m/s 758 mmHg 60%
    06:00 +25°C° 0 mm 1 m/s 758 mmHg 54%
    07:00 +26°C° 0 mm 2 m/s 758 mmHg 48%
    08:00 +27°C° 0 mm 2 m/s 759 mmHg 42%
    09:00 +30°C° 0 mm 3 m/s 759 mmHg 32%
    10:00 +34°C° 0 mm 3 m/s 758 mmHg 23%
    11:00 +37°C° 0 mm 4 m/s 758 mmHg 13%
    12:00 +38°C° 0 mm 4 m/s 757 mmHg 12%
    13:00 +40°C° 0 mm 4 m/s 757 mmHg 11%
    14:00 +40°C° 0 mm 3 m/s 756 mmHg 10%
    15:00 +39°C° 0 mm 3 m/s 756 mmHg 12%
    16:00 +38°C° 0 mm 3 m/s 756 mmHg 14%
    17:00 +37°C° 0 mm 3 m/s 756 mmHg 16%
    18:00 +35°C° 0 mm 3 m/s 756 mmHg 22%
    19:00 +31°C° 0 mm 3 m/s 757 mmHg 29%
    20:00 +29°C° 0 mm 3 m/s 758 mmHg 35%
    21:00 +28°C° 0 mm 3 m/s 758 mmHg 40%
    22:00 +28°C° 0 mm 3 m/s 758 mmHg 44%
    23:00 +27°C° 0 mm 3 m/s 758 mmHg 49%
    Arată mai mult